GW0118 Weather Reports


time (UTC)temp
F
wind
direction
speed
knots
gust
knots
rain 1hr
in
rain 24hr
in
rain mn
in
humidity
%
barometer
mb
20260502190100 53 248 0.0 2.6 0.00 0.66 0.66 91 1016.1
20260502184559 53 247 0.9 3.5 0.00 0.66 0.66 91 1016.0
20260502183100 54 0 0.0 0.9 0.00 0.66 0.66 92 1016.0
20260502181559 54 0 0.0 0.9 0.00 0.66 0.66 91 1016.0
20260502163105 52 331 0.0 1.7 0.29 0.66 0.66 93 1016.9
20260502161606 51 0 0.0 1.7 0.37 0.63 0.63 92 1017.1
20260502160104 51 212 0.9 5.2 0.32 0.56 0.56 92 1017.6
20260502151611 51 321 5.2 12.2 0.03 0.26 0.26 89 1017.2
20260502150109 52 96 9.6 15.6 0.01 0.24 0.24 86 1018.1
20260502123111 56 228 1.7 7.8 0.00 0.22 0.22 89 1018.9
20260502121603 55 139 1.7 7.8 0.00 0.22 0.22 89 1019.0
20260502120114 55 245 3.5 7.0 0.00 0.22 0.22 89 1019.5
20260502114603 55 0 0.0 3.5 0.00 0.22 0.22 91 1019.5
20260502113100 54 0 0.0 2.6 0.00 0.22 0.22 91 1019.8
20260502111602 53 0 2.6 4.3 0.01 0.22 0.22 90 1019.8
20260502110100 54 11 0.9 3.5 0.03 0.22 0.22 90 1020.1
20260502104559 55 263 2.6 7.0 0.18 0.22 0.22 91 1020.4
20260502103113 54 267 0.9 5.2 0.18 0.22 0.22 91 1020.3
20260502101601 54 207 0.0 5.2 0.18 0.21 0.21 91 1020.2
20260502100125 54 161 3.5 6.1 0.16 0.19 0.19 90 1020.4
20260502090116 55 200 2.6 7.8 0.03 0.03 0.03 89 1020.4
20260502070101 55 114 1.7 7.0 0.00 0.00 0.00 84 1020.5
20260502064608 55 235 5.2 8.7 0.00 0.00 0.00 84 1020.4
20260502063058 55 194 5.2 11.3 0.00 0.00 0.00 84 1020.3
20260502061559 54 320 6.1 12.2 0.00 0.00 0.00 84 1020.4
20260502060101 54 134 5.2 11.3 0.00 0.00 0.00 84 1020.2
20260502054600 54 169 4.3 8.7 0.00 0.00 0.00 85 1020.2
20260502053058 54 243 1.7 7.0 0.00 0.00 0.00 85 1020.0
20260502051652 54 174 3.5 10.4 0.00 0.00 0.00 85 1020.0
20260502050100 54 141 7.0 11.3 0.00 0.00 0.00 84 1020.2
20260502044608 54 148 5.2 10.4 0.00 0.00 0.00 84 1020.2
20260502043109 54 173 6.1 11.3 0.00 0.00 0.00 84 1020.3
20260502041556 54 153 5.2 9.6 0.00 0.00 0.00 84 1020.4
20260502040059 54 237 4.3 7.8 0.00 0.00 0.00 84 1020.6
20260502034557 54 109 2.6 7.0 0.00 0.00 0.00 84 1020.6
20260502033059 53 134 0.9 1.7 0.00 0.00 0.00 84 1020.7
20260502031610 53 0 0.0 0.9 0.00 0.00 0.00 83 1020.7
20260502030057 53 115 0.0 0.9 0.00 0.00 0.00 83 1020.7
20260502024600 53 0 0.0 0.0 0.00 0.00 0.00 82 1020.7
20260502023058 53 0 0.0 0.9 0.00 0.00 0.00 82 1020.8
20260502021559 53 139 0.0 0.9 0.00 0.00 0.00 81 1020.7
20260502020108 53 0 0.0 0.9 0.00 0.00 0.00 80 1020.9
20260502014557 54 149 0.9 3.5 0.00 0.00 0.00 79 1020.9
20260502013057 54 236 0.9 2.6 0.00 0.00 0.00 79 1021.2
20260502011559 54 254 0.9 1.7 0.00 0.00 0.00 78 1021.3
20260502010059 54 0 0.0 0.9 0.00 0.00 0.00 78 1021.3
20260502004600 54 0 0.0 1.7 0.00 0.00 0.00 77 1021.5
20260502003056 55 0 0.0 4.3 0.00 0.00 0.00 76 1021.5
20260502001600 55 198 0.9 4.3 0.00 0.00 0.00 75 1021.7
20260501234600 55 50 0.0 2.6 0.00 0.00 0.00 74 1021.7
20260501233103 55 253 0.0 4.3 0.00 0.00 0.00 74 1021.7
20260501231608 55 120 0.9 9.6 0.00 0.00 0.00 73 1021.8
20260501230100 55 268 3.5 10.4 0.00 0.00 0.00 74 1021.6
20260501224559 55 225 1.7 7.0 0.00 0.00 0.00 74 1021.7
20260501223100 56 107 1.7 6.1 0.00 0.00 0.00 74 1021.6
20260501221559 56 273 1.7 6.1 0.00 0.00 0.00 74 1021.7
20260501220059 56 272 1.7 8.7 0.00 0.00 0.00 75 1021.7
20260501214607 56 196 1.7 7.8 0.00 0.00 0.00 75 1021.9
20260501213105 56 141 3.5 8.7 0.00 0.00 0.00 76 1021.9
20260501211558 56 54 2.6 8.7 0.00 0.00 0.00 75 1021.9
20260501210058 57 198 1.7 7.8 0.00 0.00 0.00 74 1022.1
20260501204600 58 169 2.6 11.3 0.00 0.00 0.00 72 1021.7
20260501203104 59 201 2.6 9.6 0.00 0.00 0.00 72 1021.6
20260501201557 59 207 2.6 8.7 0.00 0.00 0.00 71 1021.4
20260501200100 59 127 3.5 8.7 0.00 0.00 0.00 72 1021.3
20260501194603 59 110 2.6 10.4 0.00 0.00 0.00 71 1021.2
20260501193059 60 124 2.6 9.6 0.00 0.00 0.00 70 1021.0
20260501191606 61 117 2.6 7.8 0.00 0.00 0.00 67 1020.8